Location: Banksville Park
(38.5557°N, 75.1182°W)
Time: 11:18:10
(UTC+00:00)

Cosmos 1821 Rocket - Pass Details

Date: 19 September 2020
Orbit: 944 x 1005 km, 82.9° (Epoch: 23 October)

Event Time Altitude Azimuth Distance (km) Brightness Sun altitude
Rises 08:02:06 0° 352° (N) 3,708 7.3 -31.3°
Reaches altitude 10° 08:04:38 10° 351° (N) 2,748 6.6 -30.9°
Enters shadow 08:10:10 70° 335° (NNW) 1,036 4.0 -30.0°
